Wabanaki — WDG9870 — position and weather

sailwx.info

Track history (hours):
 
Tides and Currents Weather Stations Pressure Air Temp Water Temp Dewpoint Dewpoint Depression Visibility Wind Speed Wind Dir Waves Ship Positions

Wabanaki

Owner: Casco Bay Island Transit District, Portland, ME. More information available from US FCC via Universal Licensing System and Coast Guard Vessel Documentation Center.

Last reported at 2017-Sep-15 16:55 UTC. Time now 2017-Sep-22 17:25 UTC.
Position N 43°39' W 070°15'.

Type: Passenger vessel. MMSI: 367591990.

Date/timePositionNaut miles runAvg speedWind from/ knotsBaromVisibWave heightAir tempDewpointWater temp
2017-Sep-15 16:55N 43°39' W 070°15'2 4.0
2017-Sep-15 16:30N 43°40' W 070°13'3 4.8
2017-Sep-15 15:57N 43°42' W 070°10'2 4.3
2017-Sep-15 15:30N 43°40' W 070°12'2 4.6
2017-Sep-15 15:00N 43°39' W 070°15'0 0.0
2017-Sep-15 14:30N 43°39' W 070°15'0 0.0
2017-Sep-15 14:00N 43°39' W 070°15'0 0.0
2017-Sep-15 13:30N 43°39' W 070°15'2 4.6
2017-Sep-15 13:00N 43°40' W 070°12'1 3.0
2017-Sep-15 12:30N 43°41' W 070°11'2 4.1
2017-Sep-15 12:00N 43°40' W 070°12'2 3.7
2017-Sep-15 11:30N 43°39' W 070°15'0 0.0
2017-Sep-15 02:47N 43°39' W 070°15'2 6.1
2017-Sep-15 02:30N 43°40' W 070°13'3 5.3
2017-Sep-15 02:00N 43°42' W 070°10'1 2.0
2017-Sep-15 01:30N 43°41' W 070°11'3 6.4
2017-Sep-15 01:00N 43°39' W 070°15'2 3.1
2017-Sep-15 00:30N 43°40' W 070°13'3 5.6
2017-Sep-15 00:00N 43°42' W 070°10'4 1.8
2017-Sep-14 21:42N 43°39' W 070°15'1 3.1
2017-Sep-14 21:27N 43°40' W 070°14'3 7.7
2017-Sep-14 21:00N 43°42' W 070°10'2 4.1
2017-Sep-14 20:30N 43°41' W 070°13'2 0.6
2017-Sep-14 16:46N 43°39' W 070°15'1 3.0
2017-Sep-14 16:30N 43°40' W 070°14'3 6.9
2017-Sep-14 16:01N 43°42' W 070°10'1 2.7
2017-Sep-14 15:31N 43°41' W 070°11'3 5.8
2017-Sep-14 15:01N 43°39' W 070°15'0 0.0
2017-Sep-14 14:30N 43°39' W 070°15'0 0.0
2017-Sep-14 14:01N 43°39' W 070°15'0 0.0
2017-Sep-14 13:30N 43°39' W 070°15'2 3.7
2017-Sep-14 13:00N 43°40' W 070°12'2 3.8
2017-Sep-14 12:30N 43°41' W 070°11'2 4.4
2017-Sep-14 12:00N 43°40' W 070°13'2 3.1
2017-Sep-14 11:31N 43°39' W 070°15'0 0.0
2017-Sep-14 02:51N 43°39' W 070°15'2 5.4
2017-Sep-14 02:30N 43°40' W 070°12'3 5.1
2017-Sep-14 02:00N 43°42' W 070°10'1 2.3
2017-Sep-14 01:30N 43°41' W 070°11'3 6.1
2017-Sep-14 01:00N 43°39' W 070°15'2 3.6
2017-Sep-14 00:30N 43°40' W 070°13'3 5.2
2017-Sep-14 00:00N 43°42' W 070°10'2 4.3
2017-Sep-13 23:30N 43°40' W 070°12'2 4.4
2017-Sep-13 23:00N 43°39' W 070°15'3 6.3
2017-Sep-13 22:30N 43°40' W 070°11'1 2.9
2017-Sep-13 22:00N 43°40' W 070°13'1 2.8
2017-Sep-13 21:30N 43°39' W 070°14'4 7.7
2017-Sep-13 21:00N 43°42' W 070°10'2 4.9
2017-Sep-13 20:30N 43°40' W 070°12'2 3.8
2017-Sep-13 20:00N 43°39' W 070°15'0 0.0
2017-Sep-13 16:46N 43°39' W 070°15'1 3.9
2017-Sep-13 16:30N 43°40' W 070°14'3 6.5
2017-Sep-13 16:00N 43°42' W 070°10'2 3.8
2017-Sep-13 15:30N 43°40' W 070°12'2 4.7
2017-Sep-13 15:01N 43°39' W 070°15'0 0.0
2017-Sep-13 14:31N 43°39' W 070°15'0 0.0
2017-Sep-13 14:01N 43°39' W 070°15'0 0.0
2017-Sep-13 13:31N 43°39' W 070°15'2 4.1
2017-Sep-13 13:01N 43°40' W 070°12'2 3.7
2017-Sep-13 12:31N 43°41' W 070°11'2 4.1
2017-Sep-13 12:00N 43°40' W 070°12'2 3.7
2017-Sep-13 11:30N 43°39' W 070°15'0 0.0
2017-Sep-13 02:51N 43°39' W 070°15'2 5.3
2017-Sep-13 02:30N 43°40' W 070°12'3 5.1
2017-Sep-13 02:00N 43°42' W 070°10'1 2.2
2017-Sep-13 01:30N 43°41' W 070°11'3 6.3
2017-Sep-13 01:00N 43°39' W 070°15'2 3.6
2017-Sep-13 00:30N 43°40' W 070°13'3 5.1
2017-Sep-13 00:00N 43°42' W 070°10'2 4.7
2017-Sep-12 23:30N 43°40' W 070°12'2 3.9
2017-Sep-12 23:01N 43°39' W 070°15'3 5.9
2017-Sep-12 22:30N 43°41' W 070°11'1 2.7
2017-Sep-12 22:00N 43°40' W 070°13'2 3.4
2017-Sep-12 21:31N 43°39' W 070°15'4 8.4
2017-Sep-12 21:00N 43°42' W 070°10'2 4.9
2017-Sep-12 20:30N 43°40' W 070°12'2 3.9
2017-Sep-12 20:00N 43°39' W 070°15'0 0.0
2017-Sep-12 16:51N 43°39' W 070°15'1 2.8
2017-Sep-12 16:31N 43°40' W 070°14'3 6.6
2017-Sep-12 16:01N 43°42' W 070°10'2 3.1
2017-Sep-12 15:31N 43°41' W 070°12'3 5.4
2017-Sep-12 15:00N 43°39' W 070°15'0 0.0
2017-Sep-12 14:31N 43°39' W 070°15'0 0.0
2017-Sep-12 14:00N 43°39' W 070°15'0 0.0
2017-Sep-12 13:30N 43°39' W 070°15'2 4.1
2017-Sep-12 13:00N 43°40' W 070°12'2 3.8
2017-Sep-12 12:31N 43°41' W 070°11'2 4.9
2017-Sep-12 12:01N 43°40' W 070°13'2 0.2
2017-Sep-12 02:56N 43°39' W 070°15'2 4.1
2017-Sep-12 02:30N 43°40' W 070°13'3 5.3
2017-Sep-12 02:00N 43°42' W 070°10'1 2.1
2017-Sep-12 01:30N 43°41' W 070°11'3 6.3
2017-Sep-12 01:00N 43°39' W 070°15'2 3.7
2017-Sep-12 00:30N 43°40' W 070°12'2 5.0
2017-Sep-12 00:00N 43°42' W 070°10'3 5.2
2017-Sep-11 23:30N 43°40' W 070°13'2 3.5
2017-Sep-11 23:00N 43°39' W 070°15'3 6.2
2017-Sep-11 22:30N 43°41' W 070°11'2 3.7
2017-Sep-11 22:00N 43°40' W 070°13'0 0.0
2017-Sep-11 21:30N 43°40' W 070°13'3 5.5
2017-Sep-11 21:00N 43°42' W 070°10'2 4.9
2017-Sep-11 20:30N 43°40' W 070°12'2 3.7
2017-Sep-11 20:00N 43°39' W 070°15'0 0.0
2017-Sep-11 02:49N 43°39' W 070°15'2 5.4
2017-Sep-11 02:30N 43°40' W 070°13'3 5.3
2017-Sep-11 02:00N 43°42' W 070°10'1 2.3
2017-Sep-11 01:31N 43°41' W 070°11'3 6.1
2017-Sep-11 01:00N 43°39' W 070°15'2 3.9
2017-Sep-11 00:31N 43°40' W 070°12'2 4.7
2017-Sep-11 00:00N 43°42' W 070°10'3 5.1
2017-Sep-10 23:30N 43°40' W 070°13'2 3.5
2017-Sep-10 23:00N 43°39' W 070°15'3 6.0
2017-Sep-10 22:30N 43°41' W 070°11'1 2.6
2017-Sep-10 22:00N 43°40' W 070°12'1 2.5
2017-Sep-10 21:30N 43°40' W 070°14'4 7.2
2017-Sep-10 21:00N 43°42' W 070°10'2 4.8
2017-Sep-10 20:30N 43°40' W 070°12'2 3.8
2017-Sep-10 20:00N 43°39' W 070°15'0 0.0
2017-Sep-10 17:09N 43°39' W 070°15'0 0.0
2017-Sep-10 17:00N 43°39' W 070°15'2 3.5
2017-Sep-10 16:30N 43°40' W 070°13'3 5.2
2017-Sep-10 16:00N 43°42' W 070°10'2 3.9
2017-Sep-10 15:30N 43°40' W 070°12'2 4.5
2017-Sep-10 15:00N 43°39' W 070°15'0 0.0
2017-Sep-10 14:00N 43°39' W 070°15'0 0.0
2017-Sep-10 13:30N 43°39' W 070°15'0 0.1
2017-Sep-10 13:00N 43°39' W 070°15'4 7.1
2017-Sep-10 12:30N 43°41' W 070°11'3 6.0
2017-Sep-10 12:00N 43°42' W 070°07'1 2.9
2017-Sep-10 11:31N 43°43' W 070°08'3 5.7
2017-Sep-10 11:00N 43°41' W 070°11'4 7.1
2017-Sep-10 10:30N 43°39' W 070°15'0 0.0
2017-Sep-10 02:51N 43°39' W 070°15'2 5.2
2017-Sep-10 02:30N 43°40' W 070°13'2 3.3
2017-Sep-10 02:00N 43°41' W 070°11'0 0.3
2017-Sep-10 01:31N 43°41' W 070°11'3 6.2
2017-Sep-10 01:00N 43°39' W 070°15'2 3.9
2017-Sep-10 00:31N 43°40' W 070°12'2 4.7
2017-Sep-10 00:00N 43°42' W 070°10'3 5.2
2017-Sep-09 23:31N 43°40' W 070°13'2 3.4
2017-Sep-09 23:00N 43°39' W 070°15'3 5.5
2017-Sep-09 22:31N 43°40' W 070°11'1 2.1
2017-Sep-09 22:01N 43°40' W 070°13'2 3.3
2017-Sep-09 21:31N 43°39' W 070°15'4 7.5
2017-Sep-09 20:57N 43°42' W 070°10'  
Track history (hours):
 
Tides and Currents Weather Stations Pressure Air Temp Water Temp Dewpoint Dewpoint Depression Visibility Wind Speed Wind Dir Waves Ship Positions

Wabanaki

Owner: Casco Bay Island Transit District, Portland, ME. More information available from US FCC via Universal Licensing System and Coast Guard Vessel Documentation Center.

Last reported at 2017-Sep-15 16:55 UTC. Time now 2017-Sep-22 17:25 UTC.
Position N 43°39' W 070°15'.

Type: Passenger vessel. MMSI: 367591990.

Date/timePositionNaut miles runAvg speedWind from/ knotsBaromVisibWave heightAir tempDewpointWater temp
2017-Sep-15 16:55N 43°39' W 070°15'2 4.0
2017-Sep-15 16:30N 43°40' W 070°13'3 4.8
2017-Sep-15 15:57N 43°42' W 070°10'2 4.3
2017-Sep-15 15:30N 43°40' W 070°12'2 4.6
2017-Sep-15 15:00N 43°39' W 070°15'0 0.0
2017-Sep-15 14:30N 43°39' W 070°15'0 0.0
2017-Sep-15 14:00N 43°39' W 070°15'0 0.0
2017-Sep-15 13:30N 43°39' W 070°15'2 4.6
2017-Sep-15 13:00N 43°40' W 070°12'1 3.0
2017-Sep-15 12:30N 43°41' W 070°11'2 4.1
2017-Sep-15 12:00N 43°40' W 070°12'2 3.7
2017-Sep-15 11:30N 43°39' W 070°15'0 0.0
2017-Sep-15 02:47N 43°39' W 070°15'2 6.1
2017-Sep-15 02:30N 43°40' W 070°13'3 5.3
2017-Sep-15 02:00N 43°42' W 070°10'1 2.0
2017-Sep-15 01:30N 43°41' W 070°11'3 6.4
2017-Sep-15 01:00N 43°39' W 070°15'2 3.1
2017-Sep-15 00:30N 43°40' W 070°13'3 5.6
2017-Sep-15 00:00N 43°42' W 070°10'4 1.8
2017-Sep-14 21:42N 43°39' W 070°15'1 3.1
2017-Sep-14 21:27N 43°40' W 070°14'3 7.7
2017-Sep-14 21:00N 43°42' W 070°10'2 4.1
2017-Sep-14 20:30N 43°41' W 070°13'2 0.6
2017-Sep-14 16:46N 43°39' W 070°15'1 3.0
2017-Sep-14 16:30N 43°40' W 070°14'3 6.9
2017-Sep-14 16:01N 43°42' W 070°10'1 2.7
2017-Sep-14 15:31N 43°41' W 070°11'3 5.8
2017-Sep-14 15:01N 43°39' W 070°15'0 0.0
2017-Sep-14 14:30N 43°39' W 070°15'0 0.0
2017-Sep-14 14:01N 43°39' W 070°15'0 0.0
2017-Sep-14 13:30N 43°39' W 070°15'2 3.7
2017-Sep-14 13:00N 43°40' W 070°12'2 3.8
2017-Sep-14 12:30N 43°41' W 070°11'2 4.4
2017-Sep-14 12:00N 43°40' W 070°13'2 3.1
2017-Sep-14 11:31N 43°39' W 070°15'0 0.0
2017-Sep-14 02:51N 43°39' W 070°15'2 5.4
2017-Sep-14 02:30N 43°40' W 070°12'3 5.1
2017-Sep-14 02:00N 43°42' W 070°10'1 2.3
2017-Sep-14 01:30N 43°41' W 070°11'3 6.1
2017-Sep-14 01:00N 43°39' W 070°15'2 3.6
2017-Sep-14 00:30N 43°40' W 070°13'3 5.2
2017-Sep-14 00:00N 43°42' W 070°10'2 4.3
2017-Sep-13 23:30N 43°40' W 070°12'2 4.4
2017-Sep-13 23:00N 43°39' W 070°15'3 6.3
2017-Sep-13 22:30N 43°40' W 070°11'1 2.9
2017-Sep-13 22:00N 43°40' W 070°13'1 2.8
2017-Sep-13 21:30N 43°39' W 070°14'4 7.7
2017-Sep-13 21:00N 43°42' W 070°10'2 4.9
2017-Sep-13 20:30N 43°40' W 070°12'2 3.8
2017-Sep-13 20:00N 43°39' W 070°15'0 0.0
2017-Sep-13 16:46N 43°39' W 070°15'1 3.9
2017-Sep-13 16:30N 43°40' W 070°14'3 6.5
2017-Sep-13 16:00N 43°42' W 070°10'2 3.8
2017-Sep-13 15:30N 43°40' W 070°12'2 4.7
2017-Sep-13 15:01N 43°39' W 070°15'0 0.0
2017-Sep-13 14:31N 43°39' W 070°15'0 0.0
2017-Sep-13 14:01N 43°39' W 070°15'0 0.0
2017-Sep-13 13:31N 43°39' W 070°15'2 4.1
2017-Sep-13 13:01N 43°40' W 070°12'2 3.7
2017-Sep-13 12:31N 43°41' W 070°11'2 4.1
2017-Sep-13 12:00N 43°40' W 070°12'2 3.7
2017-Sep-13 11:30N 43°39' W 070°15'0 0.0
2017-Sep-13 02:51N 43°39' W 070°15'2 5.3
2017-Sep-13 02:30N 43°40' W 070°12'3 5.1
2017-Sep-13 02:00N 43°42' W 070°10'1 2.2
2017-Sep-13 01:30N 43°41' W 070°11'3 6.3
2017-Sep-13 01:00N 43°39' W 070°15'2 3.6
2017-Sep-13 00:30N 43°40' W 070°13'3 5.1
2017-Sep-13 00:00N 43°42' W 070°10'2 4.7
2017-Sep-12 23:30N 43°40' W 070°12'2 3.9
2017-Sep-12 23:01N 43°39' W 070°15'3 5.9
2017-Sep-12 22:30N 43°41' W 070°11'1 2.7
2017-Sep-12 22:00N 43°40' W 070°13'2 3.4
2017-Sep-12 21:31N 43°39' W 070°15'4 8.4
2017-Sep-12 21:00N 43°42' W 070°10'2 4.9
2017-Sep-12 20:30N 43°40' W 070°12'2 3.9
2017-Sep-12 20:00N 43°39' W 070°15'0 0.0
2017-Sep-12 16:51N 43°39' W 070°15'1 2.8
2017-Sep-12 16:31N 43°40' W 070°14'3 6.6
2017-Sep-12 16:01N 43°42' W 070°10'2 3.1
2017-Sep-12 15:31N 43°41' W 070°12'3 5.4
2017-Sep-12 15:00N 43°39' W 070°15'0 0.0
2017-Sep-12 14:31N 43°39' W 070°15'0 0.0
2017-Sep-12 14:00N 43°39' W 070°15'0 0.0
2017-Sep-12 13:30N 43°39' W 070°15'2 4.1
2017-Sep-12 13:00N 43°40' W 070°12'2 3.8
2017-Sep-12 12:31N 43°41' W 070°11'2 4.9
2017-Sep-12 12:01N 43°40' W 070°13'2 0.2
2017-Sep-12 02:56N 43°39' W 070°15'2 4.1
2017-Sep-12 02:30N 43°40' W 070°13'3 5.3
2017-Sep-12 02:00N 43°42' W 070°10'1 2.1
2017-Sep-12 01:30N 43°41' W 070°11'3 6.3
2017-Sep-12 01:00N 43°39' W 070°15'2 3.7
2017-Sep-12 00:30N 43°40' W 070°12'2 5.0
2017-Sep-12 00:00N 43°42' W 070°10'3 5.2
2017-Sep-11 23:30N 43°40' W 070°13'2 3.5
2017-Sep-11 23:00N 43°39' W 070°15'3 6.2
2017-Sep-11 22:30N 43°41' W 070°11'2 3.7
2017-Sep-11 22:00N 43°40' W 070°13'0 0.0
2017-Sep-11 21:30N 43°40' W 070°13'3 5.5
2017-Sep-11 21:00N 43°42' W 070°10'2 4.9
2017-Sep-11 20:30N 43°40' W 070°12'2 3.7
2017-Sep-11 20:00N 43°39' W 070°15'0 0.0
2017-Sep-11 02:49N 43°39' W 070°15'2 5.4
2017-Sep-11 02:30N 43°40' W 070°13'3 5.3
2017-Sep-11 02:00N 43°42' W 070°10'1 2.3
2017-Sep-11 01:31N 43°41' W 070°11'3 6.1
2017-Sep-11 01:00N 43°39' W 070°15'2 3.9
2017-Sep-11 00:31N 43°40' W 070°12'2 4.7
2017-Sep-11 00:00N 43°42' W 070°10'3 5.1
2017-Sep-10 23:30N 43°40' W 070°13'2 3.5
2017-Sep-10 23:00N 43°39' W 070°15'3 6.0
2017-Sep-10 22:30N 43°41' W 070°11'1 2.6
2017-Sep-10 22:00N 43°40' W 070°12'1 2.5
2017-Sep-10 21:30N 43°40' W 070°14'4 7.2
2017-Sep-10 21:00N 43°42' W 070°10'2 4.8
2017-Sep-10 20:30N 43°40' W 070°12'2 3.8
2017-Sep-10 20:00N 43°39' W 070°15'0 0.0
2017-Sep-10 17:09N 43°39' W 070°15'0 0.0
2017-Sep-10 17:00N 43°39' W 070°15'2 3.5
2017-Sep-10 16:30N 43°40' W 070°13'3 5.2
2017-Sep-10 16:00N 43°42' W 070°10'2 3.9
2017-Sep-10 15:30N 43°40' W 070°12'2 4.5
2017-Sep-10 15:00N 43°39' W 070°15'0 0.0
2017-Sep-10 14:00N 43°39' W 070°15'0 0.0
2017-Sep-10 13:30N 43°39' W 070°15'0 0.1
2017-Sep-10 13:00N 43°39' W 070°15'4 7.1
2017-Sep-10 12:30N 43°41' W 070°11'3 6.0
2017-Sep-10 12:00N 43°42' W 070°07'1 2.9
2017-Sep-10 11:31N 43°43' W 070°08'3 5.7
2017-Sep-10 11:00N 43°41' W 070°11'4 7.1
2017-Sep-10 10:30N 43°39' W 070°15'0 0.0
2017-Sep-10 02:51N 43°39' W 070°15'2 5.2
2017-Sep-10 02:30N 43°40' W 070°13'2 3.3
2017-Sep-10 02:00N 43°41' W 070°11'0 0.3
2017-Sep-10 01:31N 43°41' W 070°11'3 6.2
2017-Sep-10 01:00N 43°39' W 070°15'2 3.9
2017-Sep-10 00:31N 43°40' W 070°12'2 4.7
2017-Sep-10 00:00N 43°42' W 070°10'3 5.2
2017-Sep-09 23:31N 43°40' W 070°13'2 3.4
2017-Sep-09 23:00N 43°39' W 070°15'3 5.5
2017-Sep-09 22:31N 43°40' W 070°11'1 2.1
2017-Sep-09 22:01N 43°40' W 070°13'2 3.3
2017-Sep-09 21:31N 43°39' W 070°15'4 7.5
2017-Sep-09 20:57N 43°42' W 070°10'  

Dump ship's entire track history